Temperature
19 19 20 19 22 22 23 24 24 24 24 24 23 24 26 26 26 25 22 22 21 19 18 16 16 15 15 15 14 14 13 13 12 11 11 11 11 11 11 11 11 10 11 11 11 11 12 12 12
18 19 19 20 22 22 23 23 23 23 23 22 23 23 25 26 24 22 22 22 20 19 18 16 16 15 15 15 14 14 13 13 12 11 11 11 11 10 10 10 11 11 11 11 11 11 11 11 12
18 19 19 21 21 22 23 22 23 23 22 21 24 24 25 25 23 21 22 22 20 19 17 16 16 15 15 15 14 14 13 13 12 11 11 11 11 11 11 11 11 11 11 12 12 11 11 11 11
18 19 20 22 21 22 22 23 22 22 23 22 23 25 24 23 22 21 22 22 20 18 17 16 16 15 15 14 14 13 13 13 12 11 11 11 11 11 11 11 11 12 12 12 12 12 11 11 10
18 20 21 21 21 22 22 21 21 22 23 23 23 25 25 22 22 22 22 21 19 18 17 16 16 15 15 14 14 13 13 13 12 11 11 11 11 11 11 11 11 11 11 11 11 11 11 11 10
19 20 21 21 21 21 22 20 20 22 22 22 22 24 24 21 21 21 21 21 18 18 17 16 16 15 14 14 14 13 13 13 13 12 11 11 11 11 11 10 10 10 10 10 10 10 11 11 11
19 20 20 21 21 21 21 20 21 21 22 22 21 23 24 21 21 21 21 20 19 18 17 16 15 15 14 14 13 14 14 14 13 13 12 12 12 12 11 11 11 11 11 10 10 10 10 10 10
18 20 20 20 20 21 21 20 20 21 22 21 20 23 23 20 21 20 20 20 19 18 17 16 15 14 14 14 14 14 14 14 14 14 13 13 13 13 13 12 12 12 12 12 12 11 11 11 11
17 19 19 20 20 21 20 20 20 19 20 20 21 21 21 20 21 20 19 19 19 19 18 17 16 15 15 14 15 15 15 15 15 14 14 14 13 12 12 13 13 14 14 14 13 13 13 12 12
17 18 20 20 21 21 20 20 20 20 21 22 22 21 20 20 20 19 18 18 19 19 19 18 17 16 16 15 15 15 15 15 15 13 13 13 13 13 13 14 14 14 14 14 14 13 13 13 12
18 19 20 19 19 19 19 19 19 20 21 22 21 21 20 19 19 19 19 19 19 18 19 19 18 18 17 17 16 16 15 15 15 14 14 14 14 14 14 14 14 14 14 14 14 13 13 12 12
18 19 19 19 18 18 19 19 19 19 20 20 20 19 19 19 20 20 20 19 19 19 19 19 19 18 18 17 17 16 16 16 16 15 15 15 14 14 14 14 14 14 13 13 13 13 12 12 12
17 18 18 18 17 17 17 19 19 19 20 20 19 18 18 19 19 20 21 21 20 20 19 19 19 19 18 18 18 17 17 16 15 15 15 15 14 14 14 14 14 13 13 13 13 12 12 12 12
18 18 18 18 18 17 18 19 19 19 20 19 19 18 18 18 19 20 20 20 20 20 20 20 19 19 18 18 18 17 16 16 15 15 15 15 14 14 14 13 13 13 13 13 13 13 13 13 12
17 17 18 18 18 18 18 19 20 20 19 19 19 18 17 17 19 20 20 21 21 21 20 20 20 19 19 18 17 17 16 15 15 15 14 14 14 14 14 14 14 13 13 13 13 13 13 13 13
17 17 17 19 19 18 18 19 21 20 19 19 19 18 16 16 17 18 19 20 20 20 20 20 20 19 19 18 17 16 15 15 14 14 14 14 14 14 14 14 14 13 13 13 13 12 12 12 11
16 16 17 18 19 19 18 19 21 19 19 19 19 18 16 15 15 17 18 19 19 19 19 19 19 19 19 18 16 15 14 15 14 14 14 14 14 14 13 13 13 12 12 12 12 11 11 11 11
15 17 17 18 18 18 18 19 20 20 19 19 19 18 16 15 15 16 17 18 18 18 18 18 18 18 18 17 15 15 14 14 14 13 13 13 13 13 13 12 12 12 12 11 11 11 11 10 10
17 17 17 18 18 17 18 19 20 20 19 19 19 17 16 14 14 15 16 16 17 17 17 17 18 17 17 16 15 14 14 13 13 13 12 12 12 12 12 12 11 11 11 10 10 10 10 9 9
17 17 17 18 17 17 18 19 20 20 19 19 19 17 16 14 13 13 15 15 16 16 17 17 17 16 16 15 15 14 13 12 12 12 12 12 12 11 11 11 11 10 10 10 9 9 8 8 8
16 17 17 17 17 17 17 19 20 19 17 16 16 16 15 14 13 13 14 15 16 16 16 16 16 15 15 14 14 13 12 12 12 11 11 11 11 11 10 10 10 9 9 9 8 7 7 6 6
15 17 17 17 17 17 17 17 20 20 18 16 15 15 14 13 13 12 13 14 15 15 15 15 15 14 14 13 13 12 12 12 11 11 11 10 10 10 10 9 9 8 8 7 7 6 6 5 5
16 16 16 16 16 16 17 17 19 19 19 18 16 14 13 12 12 12 13 14 14 14 14 14 13 13 13 13 12 12 12 11 11 10 10 10 10 9 9 8 8 7 7 6 6 6 6 5 4
15 15 15 15 15 15 17 17 19 21 20 18 16 14 12 12 11 11 12 13 13 13 13 13 13 13 12 12 12 11 11 10 10 10 10 9 9 9 8 8 7 6 6 6 6 5 5 5 4
15 15 13 13 14 16 17 17 19 20 18 18 16 14 12 11 11 10 11 12 12 12 12 12 12 12 11 11 11 11 10 10 10 9 9 9 8 8 7 7 6 6 5 5 5 5 4 4 3
14 15 15 16 16 17 15 16 20 18 16 15 15 14 12 11 11 10 11 11 12 12 12 11 11 11 11 11 10 10 10 9 9 9 8 8 7 6 6 5 5 5 4 4 4 4 3 3 2
14 14 15 16 16 17 18 18 19 16 16 15 14 13 12 11 10 10 10 10 11 11 11 11 11 10 10 10 9 9 9 8 8 8 7 6 6 5 5 4 4 4 4 3 3 3 2 1 0
15 15 14 14 16 17 18 18 19 19 18 15 14 13 12 11 10 10 10 10 10 10 10 10 10 9 9 9 8 8 7 7 7 6 6 5 4 4 4 3 3 3 3 2 2 1 1 -0 -1
13 14 15 15 16 17 18 19 19 18 17 16 15 14 13 11 10 9 9 9 10 10 9 9 9 8 8 8 7 7 6 6 5 5 4 4 3 3 3 3 2 2 1 1 1 -0 -1 -1 -2
15 15 15 15 15 16 18 19 17 16 15 15 14 13 12 11 10 9 9 9 9 9 8 8 8 7 7 7 6 6 5 5 4 4 3 3 3 2 2 1 1 1 0 -0 -1 -2 -2 -3 -3
Wind_Speed
9 5 3 2 3 5 9 4 2 2 3 5 8 8 7 6 4 4 3 6 5 9 14 14 14 16 16 15 13 11 8 6 4 4 4 3 2 2 1 1 1 2 2 4 6 7 6 4 0
7 4 3 3 4 8 7 3 3 4 8 10 7 6 5 3 1 2 3 8 6 9 13 14 15 15 15 14 13 10 7 5 4 5 4 3 3 2 1 1 2 2 3 4 6 7 8 5 3
4 3 2 3 4 6 3 1 4 9 11 5 4 4 4 2 2 2 4 10 7 9 12 12 13 14 14 14 13 10 7 5 5 5 4 5 4 3 1 1 2 3 4 4 5 7 7 6 5
4 2 2 5 5 4 5 5 8 11 7 3 5 5 2 3 3 3 6 10 8 9 11 12 12 13 13 14 13 10 7 5 5 5 5 5 5 3 1 1 2 3 4 4 5 6 7 7 7
3 4 5 6 5 4 5 7 7 8 8 5 6 6 1 4 3 3 5 9 8 9 9 12 12 12 13 13 12 10 7 5 6 6 5 5 5 4 2 1 2 3 4 4 5 6 7 7 9
4 4 8 9 5 4 5 4 5 7 7 6 6 6 2 4 3 2 5 8 7 8 9 10 12 11 12 12 12 10 8 7 6 6 6 6 4 4 3 2 3 4 5 6 6 7 7 8 9
7 7 11 10 7 5 2 2 5 8 7 6 7 5 1 8 6 1 5 7 7 7 8 9 11 13 12 11 11 10 9 8 8 7 7 5 3 4 4 3 4 6 7 8 9 9 9 10 11
6 6 11 10 8 5 2 3 5 8 8 7 4 4 3 9 5 2 5 6 7 7 8 8 9 10 11 12 12 11 10 9 8 8 7 5 4 5 5 6 4 6 8 9 10 11 11 12 12
6 10 14 12 7 4 2 5 6 6 7 7 4 4 5 7 2 3 5 7 8 8 8 8 9 9 9 9 9 11 11 11 10 10 9 8 9 8 7 7 4 7 10 11 12 12 13 14 13
10 15 18 10 8 5 4 7 8 7 10 8 5 4 6 7 4 4 6 8 10 11 11 10 10 10 10 8 8 9 9 9 10 8 7 7 7 7 8 6 8 11 12 13 14 15 15 15 12
12 17 14 11 9 6 7 8 6 9 10 9 11 14 13 10 8 7 7 8 9 10 11 11 11 11 10 8 8 7 7 7 8 9 8 7 7 7 7 7 7 9 10 11 10 12 11 11 10
15 16 13 10 7 6 8 8 10 12 14 16 16 15 13 12 11 9 8 7 7 9 11 12 12 12 11 10 8 7 6 6 6 7 8 7 5 5 6 6 7 7 7 7 8 8 11 11 13
20 15 12 11 8 9 9 13 14 18 18 17 14 13 12 11 10 8 6 5 7 8 10 11 12 12 11 11 8 8 7 6 6 6 6 7 6 6 6 6 6 7 8 7 8 9 10 11 12
18 17 15 12 12 9 12 17 14 16 13 12 11 9 7 6 7 6 4 4 5 6 8 9 11 12 12 10 9 8 7 6 6 5 6 6 6 6 6 7 7 7 7 8 8 10 10 10 11
16 15 16 15 14 9 9 16 16 13 9 10 7 4 3 3 4 4 5 4 4 5 6 7 9 11 12 11 9 6 5 5 4 4 5 5 6 6 6 7 7 7 8 9 8 10 9 10 11
18 19 19 17 13 10 9 17 11 7 7 8 6 3 1 1 3 4 4 4 4 4 4 4 5 8 9 8 6 4 3 2 2 2 3 4 5 5 5 5 6 7 7 7 7 9 9 10 11
16 20 21 17 14 13 14 15 9 6 9 12 9 5 2 1 3 5 5 5 5 5 5 3 1 2 5 5 4 3 3 3 3 3 3 4 4 4 4 5 6 7 6 6 7 8 9 11 12
21 21 19 17 9 12 15 17 15 14 13 14 10 6 4 3 4 5 5 6 6 6 7 7 8 7 8 7 7 7 8 8 8 8 9 9 9 9 7 6 8 8 6 7 8 9 10 10 11
19 20 18 15 8 8 14 18 17 15 13 13 11 9 7 6 5 6 7 7 8 9 10 11 11 10 9 8 9 9 9 9 10 10 13 13 13 12 10 7 8 8 7 8 10 9 12 11 11
18 19 17 12 6 7 13 18 18 14 11 10 10 11 10 9 8 8 9 9 11 11 12 13 13 13 12 11 10 10 11 10 10 9 12 13 13 12 9 10 8 8 7 9 10 10 9 9 11
20 19 17 10 5 6 8 12 9 4 3 4 7 10 10 11 12 11 11 11 11 12 12 12 14 14 14 13 11 10 9 9 8 9 8 11 12 12 11 10 9 8 8 8 9 10 10 10 11
21 17 13 10 7 5 3 6 7 6 6 6 9 11 12 12 13 12 12 12 11 11 12 13 14 14 13 12 11 12 10 9 8 6 7 8 11 11 11 10 9 9 8 9 9 9 10 10 10
14 13 12 9 8 9 9 8 8 6 7 9 12 13 13 13 13 13 12 12 11 11 11 12 14 14 13 13 12 12 11 9 6 6 7 7 7 9 10 10 9 9 8 9 10 10 10 9 9
12 13 7 2 5 8 10 9 7 4 3 7 13 14 14 14 13 13 12 11 11 10 10 11 13 13 13 12 12 12 11 9 8 8 7 6 6 6 10 10 9 9 8 9 10 10 11 9 10
13 14 6 6 8 7 5 7 8 0 1 4 13 17 16 15 14 14 14 12 12 11 10 10 12 12 11 12 11 11 10 9 8 7 7 7 6 7 10 10 9 9 9 10 10 10 10 10 10
15 15 8 7 8 5 6 7 4 3 0 3 10 16 17 16 14 14 13 12 12 11 10 11 11 11 10 10 10 9 8 6 6 7 7 7 6 7 9 10 10 10 10 10 10 9 10 10 11
13 11 3 1 3 4 5 5 5 4 2 3 12 18 19 17 16 14 13 12 12 11 10 10 11 10 9 9 9 8 8 7 7 7 6 6 6 7 9 9 10 11 11 11 12 10 11 12 12
7 10 6 4 5 6 5 5 3 4 1 5 13 19 19 18 16 14 13 12 10 10 10 10 10 10 8 7 7 6 7 7 6 6 6 6 7 8 9 10 11 12 12 12 12 12 11 13 14
9 10 8 7 5 4 5 3 1 3 4 5 13 18 19 18 16 14 12 11 11 10 10 10 9 9 8 7 6 6 6 6 5 5 6 7 7 9 10 11 11 12 12 13 13 13 14 15 16
12 13 13 10 8 6 4 2 3 3 4 5 11 16 17 17 15 14 13 12 11 11 10 9 8 8 7 6 5 5 5 5 5 5 6 7 8 9 10 10 11 12 13 14 14 15 15 16 17
Wind_Direction
317 321 298 274 245 232 232 217 254 302 316 325 305 284 286 299 320 357 70 148 135 156 167 170 176 169 167 164 160 163 168 178 196 201 184 187 191 185 161 75 10 19 15 1 359 353 350 350 336
320 310 285 280 253 233 221 222 246 307 317 315 288 255 258 260 324 44 122 153 153 159 169 176 166 173 170 165 162 164 172 186 208 216 196 197 199 194 170 67 4 1 8 359 347 346 354 8 17
300 319 299 265 250 250 231 154 314 316 314 295 280 254 279 334 83 72 110 153 160 163 173 169 164 174 172 166 164 167 176 194 212 219 217 214 211 200 198 34 8 4 8 355 338 333 336 343 345
288 262 249 254 254 262 272 298 321 318 320 296 289 281 233 32 37 61 126 158 164 166 174 168 173 177 174 169 168 171 181 202 217 223 235 236 227 219 237 27 10 358 349 336 330 328 320 317 315
269 257 247 249 258 263 275 304 310 309 316 318 307 294 317 56 34 83 144 166 170 168 173 171 178 183 180 175 172 176 189 209 223 230 241 249 251 248 258 273 339 335 327 319 313 310 308 300 296
243 238 247 252 255 272 277 292 298 308 318 318 317 293 49 46 24 99 153 172 174 170 175 174 180 192 187 181 179 183 197 215 231 239 248 256 264 278 280 274 299 309 309 301 292 289 290 290 289
241 237 248 253 264 272 237 316 309 321 316 329 325 286 87 47 23 100 160 172 174 174 178 183 188 195 197 194 190 192 202 216 233 246 259 269 285 308 304 314 311 302 303 304 300 289 283 279 280
242 237 238 239 248 263 213 307 310 312 311 323 297 283 18 7 8 154 165 175 179 184 189 192 196 201 203 203 199 201 206 215 229 245 263 267 246 244 258 263 273 286 291 296 299 299 294 288 282
219 232 234 231 236 243 217 303 313 300 287 294 267 285 349 352 353 188 185 190 192 198 202 205 207 209 214 217 203 208 212 216 227 235 231 246 255 255 247 261 272 271 274 278 282 285 289 292 276
211 230 233 232 230 245 277 295 308 302 294 286 262 271 315 325 305 257 231 216 208 207 208 211 215 215 218 220 221 224 224 223 229 243 242 249 258 267 273 271 254 261 264 266 266 270 275 273 271
213 230 234 229 230 254 276 285 286 291 290 287 299 306 316 312 299 283 264 243 225 215 211 214 217 219 220 218 224 223 224 228 234 241 248 254 263 266 266 267 255 254 255 266 264 266 267 270 275
219 228 228 231 216 229 262 281 282 274 274 290 297 300 300 298 300 296 284 258 231 222 219 217 217 218 221 224 222 224 224 226 230 234 243 251 258 264 269 269 274 275 273 276 278 278 281 279 278
219 220 223 236 235 252 265 269 281 278 278 287 290 287 287 293 300 301 293 264 238 230 227 224 221 221 219 222 227 227 228 231 233 236 242 247 258 268 277 278 279 280 283 282 283 286 290 288 286
216 224 231 238 247 254 265 274 272 273 288 289 286 287 297 308 318 314 313 289 259 246 241 233 228 226 222 219 222 227 231 231 246 248 254 259 267 277 286 284 284 284 284 286 286 287 287 285 286
215 220 231 236 243 249 263 271 256 267 285 285 288 290 310 341 353 350 344 324 309 286 267 250 241 232 226 225 227 232 234 243 251 263 274 273 275 281 284 286 289 292 293 293 289 290 287 286 287
210 222 232 230 232 234 240 263 263 268 276 281 282 273 273 19 18 15 2 352 348 333 308 283 250 232 222 219 219 220 229 245 268 292 298 296 294 291 293 298 307 314 311 305 304 304 302 299 298
203 216 223 229 230 235 237 262 264 253 273 277 268 251 219 129 56 36 25 20 18 19 21 27 32 202 188 178 165 141 113 86 60 40 21 16 7 353 340 343 342 339 335 332 329 321 318 312 308
197 208 215 219 212 218 235 255 270 277 270 267 254 222 189 141 70 47 45 43 44 46 51 60 72 93 120 127 119 104 89 80 70 62 56 53 49 43 37 31 19 10 6 360 351 338 328 317 316
201 208 212 217 210 233 255 268 276 279 265 252 233 205 178 137 99 81 73 69 70 65 64 67 74 87 102 108 108 101 91 84 76 66 61 58 54 50 44 35 28 17 13 3 354 346 333 328 330
204 204 209 215 210 249 270 276 278 274 258 242 218 192 168 144 122 100 90 80 75 72 71 71 73 78 83 89 92 95 93 83 77 69 59 53 50 45 38 31 23 15 3 1 356 352 338 329 331
202 202 200 198 189 229 280 278 253 221 202 198 191 176 162 149 133 118 102 90 83 75 74 77 78 82 87 94 100 102 97 91 76 64 57 48 45 42 36 28 18 10 3 356 351 348 340 330 327
200 203 202 205 234 239 265 291 264 226 211 189 174 168 159 149 137 126 116 103 91 84 83 84 85 85 86 91 93 94 90 82 71 61 58 53 44 37 29 22 13 6 359 353 348 346 335 329 326
193 183 197 215 244 267 248 261 270 232 235 202 182 171 162 155 144 134 125 114 103 95 90 89 88 83 82 83 87 87 85 84 77 65 53 45 41 34 23 15 8 2 357 352 345 341 337 330 325
146 146 137 159 226 249 234 229 268 223 200 172 176 173 166 159 150 140 133 125 113 106 99 97 93 86 82 81 81 82 84 80 71 56 42 32 28 23 19 8 5 0 355 347 342 336 334 329 323
171 157 153 180 205 229 179 222 252 179 148 186 180 175 169 164 159 153 148 138 128 120 111 106 100 93 89 86 82 81 79 74 62 47 34 23 16 13 8 3 358 356 348 341 338 331 327 321 318
181 181 185 187 193 185 181 230 246 84 127 226 187 172 168 169 168 163 154 145 136 128 122 115 107 102 98 91 86 80 74 67 57 43 31 23 12 6 359 354 349 346 341 336 334 322 320 316 312
172 191 181 106 151 205 207 237 266 147 137 174 177 172 175 175 173 166 157 149 142 135 129 124 118 111 104 97 90 80 70 62 52 39 29 20 10 356 352 347 342 339 336 333 328 320 317 317 313
180 163 163 190 192 210 214 231 215 174 183 164 178 179 178 176 173 167 161 152 144 135 131 128 123 116 108 98 86 76 65 55 44 33 25 13 3 354 347 343 338 334 331 329 324 318 316 314 312
156 174 180 189 240 227 204 179 148 289 299 213 189 183 178 176 174 170 162 152 143 140 139 134 128 121 111 100 89 77 61 46 35 26 16 4 355 349 344 338 331 328 326 325 321 317 316 313 310
190 185 181 188 201 219 233 171 114 295 298 214 185 180 178 176 174 168 159 152 150 148 147 142 135 125 113 101 87 71 54 36 24 17 7 356 349 343 337 329 324 324 323 322 318 316 314 311 309
Height
1536 1534 1532 1531 1530 1525 1521 1516 1515 1515 1513 1514 1513 1512 1508 1506 1506 1510 1508 1504 1504 1503 1503 1504 1506 1508 1509 1510 1511 1512 1511 1510 1509 1509 1509 1509 1509 1509 1508 1508 1507 1506 1506 1506 1506 1507 1507 1507 1507
1535 1534 1533 1532 1527 1526 1521 1517 1516 1515 1515 1514 1512 1510 1508 1505 1507 1507 1505 1504 1504 1503 1503 1504 1506 1507 1509 1510 1511 1511 1511 1510 1509 1509 1510 1510 1509 1509 1508 1508 1507 1506 1505 1505 1505 1505 1506 1506 1506
1535 1533 1534 1529 1527 1525 1521 1518 1517 1516 1515 1514 1510 1509 1507 1506 1507 1507 1505 1504 1504 1503 1504 1504 1505 1507 1509 1510 1510 1511 1510 1510 1509 1509 1510 1510 1510 1509 1509 1508 1506 1505 1505 1504 1504 1504 1504 1505 1505
1535 1534 1532 1528 1527 1523 1521 1518 1518 1517 1514 1512 1511 1507 1507 1507 1506 1506 1505 1504 1504 1504 1504 1505 1505 1507 1508 1509 1510 1510 1510 1509 1508 1509 1509 1510 1510 1509 1509 1508 1506 1505 1504 1503 1503 1503 1503 1503 1503
1534 1533 1528 1526 1524 1521 1520 1520 1520 1517 1514 1512 1510 1506 1505 1506 1505 1505 1504 1504 1505 1505 1505 1506 1506 1507 1508 1509 1509 1509 1509 1509 1508 1508 1509 1510 1510 1510 1509 1507 1506 1505 1503 1503 1502 1502 1502 1502 1502
1534 1529 1526 1523 1520 1520 1519 1521 1520 1516 1513 1511 1510 1507 1506 1507 1505 1505 1504 1504 1505 1505 1505 1506 1506 1507 1508 1508 1508 1508 1508 1508 1508 1508 1509 1509 1509 1509 1509 1507 1506 1504 1503 1503 1502 1502 1501 1501 1500
1531 1526 1522 1521 1520 1519 1519 1520 1518 1515 1512 1511 1510 1508 1506 1507 1505 1504 1504 1504 1504 1505 1506 1506 1507 1507 1507 1508 1507 1508 1508 1508 1508 1508 1508 1508 1508 1508 1508 1507 1506 1504 1503 1502 1502 1501 1501 1500 1499
1528 1525 1522 1520 1519 1517 1518 1518 1517 1516 1512 1511 1510 1507 1506 1507 1504 1503 1503 1504 1504 1504 1505 1506 1507 1508 1508 1507 1507 1507 1507 1507 1507 1507 1507 1507 1507 1507 1506 1506 1505 1503 1502 1501 1501 1500 1500 1499 1497
1527 1524 1518 1517 1517 1515 1517 1517 1516 1515 1513 1510 1509 1508 1507 1505 1503 1502 1503 1503 1503 1504 1504 1505 1506 1507 1507 1507 1507 1506 1506 1506 1506 1506 1506 1506 1507 1507 1506 1505 1504 1503 1502 1501 1500 1499 1498 1497 1495
1523 1518 1514 1514 1514 1514 1515 1516 1515 1513 1510 1508 1507 1507 1506 1504 1503 1502 1502 1502 1502 1502 1502 1503 1504 1505 1505 1505 1505 1505 1505 1506 1506 1507 1507 1506 1507 1506 1505 1504 1503 1502 1501 1500 1499 1498 1496 1495 1494
1517 1513 1512 1515 1515 1515 1515 1514 1513 1512 1507 1506 1505 1504 1503 1502 1501 1500 1500 1500 1500 1500 1500 1501 1502 1502 1503 1503 1504 1504 1504 1505 1505 1506 1506 1505 1505 1504 1503 1503 1502 1500 1499 1498 1497 1495 1494 1493 1491
1512 1511 1512 1513 1514 1514 1513 1512 1510 1509 1506 1504 1503 1501 1499 1499 1498 1498 1497 1497 1496 1496 1497 1498 1499 1500 1501 1501 1502 1503 1503 1503 1504 1504 1504 1504 1504 1503 1502 1502 1501 1499 1498 1496 1495 1493 1492 1490 1488
1509 1508 1511 1512 1513 1513 1512 1509 1508 1504 1502 1501 1499 1497 1496 1495 1494 1494 1493 1493 1493 1493 1494 1495 1496 1497 1498 1498 1499 1500 1501 1502 1503 1503 1503 1502 1502 1501 1501 1500 1498 1497 1496 1494 1492 1490 1489 1487 1484
1504 1507 1507 1508 1510 1510 1509 1504 1504 1499 1499 1497 1495 1493 1492 1490 1489 1489 1489 1489 1489 1490 1490 1491 1492 1493 1494 1495 1497 1498 1499 1500 1500 1500 1500 1500 1499 1499 1498 1497 1496 1495 1493 1491 1489 1487 1485 1482 1480
1503 1505 1503 1504 1506 1505 1506 1499 1496 1495 1496 1494 1492 1490 1488 1487 1485 1485 1485 1485 1486 1486 1487 1487 1488 1489 1490 1492 1493 1495 1496 1497 1497 1497 1497 1497 1496 1496 1495 1494 1493 1492 1490 1488 1486 1483 1480 1478 1475
1499 1501 1500 1497 1500 1501 1505 1495 1490 1492 1492 1490 1489 1488 1487 1484 1483 1482 1482 1483 1483 1483 1483 1484 1484 1485 1486 1488 1489 1491 1492 1493 1493 1494 1494 1494 1494 1493 1492 1491 1490 1488 1486 1484 1482 1479 1476 1473 1470
1492 1494 1493 1493 1494 1496 1497 1490 1487 1489 1489 1487 1486 1485 1485 1484 1482 1481 1481 1481 1481 1481 1481 1481 1481 1482 1483 1484 1485 1487 1488 1489 1490 1491 1492 1491 1491 1490 1489 1488 1487 1485 1483 1481 1478 1475 1473 1469 1465
1485 1486 1487 1490 1489 1492 1491 1485 1483 1483 1484 1482 1481 1482 1483 1483 1481 1480 1480 1480 1480 1480 1480 1480 1480 1480 1480 1482 1483 1485 1486 1488 1489 1489 1490 1489 1489 1488 1487 1486 1485 1483 1481 1478 1475 1473 1470 1466 1462
1477 1480 1484 1485 1486 1490 1485 1481 1477 1477 1477 1476 1477 1479 1480 1481 1480 1479 1479 1480 1480 1481 1481 1481 1480 1480 1481 1482 1483 1484 1485 1487 1488 1488 1489 1489 1488 1488 1487 1485 1483 1481 1479 1476 1473 1470 1466 1463 1459
1474 1478 1482 1483 1487 1488 1482 1477 1470 1469 1471 1471 1473 1475 1478 1479 1479 1479 1480 1481 1482 1482 1482 1482 1482 1482 1483 1484 1484 1485 1486 1487 1488 1489 1490 1489 1489 1488 1486 1484 1482 1479 1477 1474 1470 1466 1462 1459 1456
1474 1475 1477 1481 1485 1485 1484 1471 1464 1466 1469 1471 1471 1474 1476 1478 1479 1480 1481 1482 1483 1483 1484 1484 1484 1484 1485 1486 1487 1487 1488 1489 1490 1491 1490 1490 1489 1487 1485 1483 1480 1477 1474 1470 1467 1463 1459 1456 1453
1472 1472 1475 1481 1484 1480 1483 1478 1461 1459 1464 1468 1470 1473 1475 1477 1479 1480 1481 1483 1483 1484 1485 1485 1486 1486 1487 1488 1489 1490 1491 1491 1491 1491 1491 1490 1488 1486 1483 1480 1477 1474 1471 1467 1464 1460 1457 1453 1449
1466 1472 1477 1481 1483 1483 1478 1480 1460 1456 1458 1461 1467 1471 1474 1477 1478 1479 1481 1482 1484 1485 1486 1487 1488 1488 1489 1491 1491 1492 1492 1492 1492 1492 1491 1489 1487 1484 1481 1477 1474 1471 1467 1464 1461 1457 1454 1450 1446
1467 1474 1481 1484 1485 1485 1471 1473 1459 1449 1451 1456 1464 1469 1472 1476 1478 1479 1481 1482 1484 1486 1487 1489 1489 1490 1491 1492 1493 1493 1493 1493 1492 1491 1490 1487 1484 1481 1478 1475 1471 1468 1465 1461 1458 1454 1450 1447 1442
1465 1472 1488 1490 1487 1473 1469 1469 1455 1447 1453 1455 1460 1465 1470 1474 1477 1479 1480 1482 1484 1486 1488 1489 1490 1491 1492 1493 1493 1493 1493 1492 1491 1490 1488 1485 1482 1479 1476 1472 1469 1466 1462 1459 1455 1451 1447 1442 1438
1461 1464 1470 1470 1468 1464 1473 1466 1448 1451 1454 1456 1458 1463 1469 1473 1476 1479 1480 1482 1484 1486 1488 1490 1491 1491 1492 1493 1493 1492 1492 1491 1490 1488 1486 1483 1480 1477 1473 1470 1467 1463 1459 1455 1451 1446 1442 1437 1433
1460 1463 1462 1463 1465 1464 1457 1453 1446 1451 1452 1454 1456 1461 1466 1471 1475 1478 1480 1482 1484 1486 1488 1490 1491 1491 1492 1492 1492 1491 1490 1489 1488 1486 1483 1480 1477 1474 1471 1467 1464 1460 1456 1451 1446 1442 1437 1432 1428
1453 1457 1467 1469 1466 1462 1455 1451 1443 1443 1446 1452 1454 1458 1463 1469 1473 1477 1479 1481 1483 1485 1487 1489 1490 1491 1491 1491 1491 1490 1489 1487 1485 1483 1481 1478 1474 1471 1468 1464 1461 1456 1452 1447 1442 1437 1432 1427 1422
1457 1460 1459 1463 1461 1456 1454 1447 1440 1442 1444 1447 1451 1455 1461 1466 1471 1475 1477 1480 1482 1485 1487 1488 1489 1490 1490 1490 1489 1488 1487 1485 1483 1480 1478 1475 1472 1468 1465 1461 1457 1452 1447 1442 1437 1432 1426 1421 1416
1446 1449 1453 1459 1460 1453 1448 1446 1441 1443 1444 1446 1449 1454 1460 1465 1469 1473 1475 1478 1481 1484 1486 1487 1488 1488 1488 1488 1487 1486 1485 1482 1480 1477 1475 1472 1469 1465 1461 1457 1452 1448 1442 1437 1431 1426 1421 1415 1410